Regional Weather Roundup
Issued by NWS

Home | Current Version | Previous Version | Text Only | Print | Product List | Glossary Off
Versions: 1 2 3 4 5 6 7 8 9 10 11 12 13 14 15 16 17 18 19 20 21 22 23 24 25 26 27 28 29 30 31 32 33 34 35 36 37 38 39 40 41 42 43 44 45 46 47 48 49

000
ASUS43 KDMX 200807
RWRIA

WEATHER ROUNDUP FOR IOWA
NATIONAL WEATHER SERVICE DES MOINES IA
300 AM CDT SAT SEP 20 2014

NOTE: "FAIR" INDICATES FEW OR NO CLOUDS BELOW 12,000 FEET WITH NO
SIGNIFICANT WEATHER AND/OR OBSTRUCTIONS TO VISIBILITY.

* - THESE STATIONS ARE NOT NWS STATIONS...THUS NOT UNDER NWS
QUALITY CONTROL.  THEY ALSO DO NOT REPORT WEATHER SUCH
AS PRECIPITATION OR FOG.

IAZ001>003-012>014-020>022-031>034-043>046-200900-
   NORTHWEST IOWA

CITY           SKY/WX    TMP DP  RH WIND       PRES   REMARKS
CARROLL *      HVY RAIN  66  64  94 S13       29.86F
CHEROKEE *     CLOUDY    64  64 100 CALM      29.80F
DENISON *      HVY RAIN  64  64 100 NW17G28   29.85S
LE MARS *        N/A     66  64  94 S3        29.80R
ORANGE CITY *  MOCLDY    64  63  94 S6        29.81R
SHELDON *      PTCLDY    64  64 100 S5G12     29.78R
SIOUX CITY     MOCLDY    65  64  97 SW6       29.80S
SPENCER        CLOUDY    66  63  90 SW12      29.79R
STORM LAKE *   PTCLDY    64  64 100 W13       29.84R
$$

IAZ055>058-069>071-079>083-090>094-200900-
   SOUTHWEST IOWA

CITY           SKY/WX    TMP DP  RH WIND       PRES   REMARKS
ATLANTIC *     MOCLDY    70  68  94 NW10      29.87R
AUDUBON *      RAIN      70  63  78 CALM      29.90R
CLARINDA *     CLEAR     68  68 100 S9G15     29.87F FOG
COUNCIL BLFS * MOCLDY    70  70 100 VRB6G15   29.86R
CRESTON *      PTCLDY    68  66  94 SW12      29.88R FOG
HARLAN  *      LGT RAIN  70  70 100 CALM      29.92R
LAMONI         CLEAR     67  65  93 S13       29.89S
RED OAK *      CLEAR     70  68  94 SW9G15    29.85S
SHENANDOAH *   CLEAR     70  68  94 SW8       29.86S
$$

IAZ047>049-059>061-072>074-084-200900-
   CENTRAL IOWA

CITY           SKY/WX    TMP DP  RH WIND       PRES   REMARKS
AMES           CLOUDY    69  67  93 CALM      29.89S
ANKENY *       MOCLDY    72  66  83 N8        29.89R
CHARITON *     CLOUDY    68  66  94 SW13G18   29.88R
DES MOINES     CLOUDY    71  66  84 N9        29.87R
GRINNELL*      CLOUDY    66  64  94 NW7G18    29.91R
KNOXVILLE *    CLEAR     70  64  83 SW10      29.85S
MARSHALLTOWN   CLOUDY    69  64  84 SW7       29.89R
PELLA *        CLOUDY    68  64  88 S7        29.87S
PERRY *        CLOUDY    72  66  83 CALM      29.89R
$$

IAZ004>006-015-016-023>025-035-036-200900-
   NORTH CENTRAL IOWA

CITY           SKY/WX    TMP DP  RH WIND       PRES   REMARKS
ALGONA *       CLEAR     64  64 100 S12G18    29.80S
CLARION *        N/A     64  63  94 SW13G18   29.85R
ESTHERVILLE    CLOUDY    65  63  93 SW9       29.78R
FORT DODGE *   CLOUDY    63  61  94 S8        29.85F
MASON CITY     LGT RAIN  65  63  93 SW13      29.82S
FOREST CITY *    N/A     64  64 100 S10       29.81R
IOWA FALLS *   LGT RAIN  64  61  88 S7        29.86F
$$

IAZ007>011-017>019-026>030-037>042-050>054-066-200900-
   NORTHEAST IOWA

CITY           SKY/WX    TMP DP  RH WIND       PRES   REMARKS
CEDAR RAPIDS   CLOUDY    65  63  93 S14       29.86F
CHARLES CITY * RAIN      66  64  94 S10       29.82F
CLINTON *      CLOUDY    64  57  77 SW13      29.91F
DECORAH *      LGT RAIN  63  63 100 SW7       29.85R
DUBUQUE        CLOUDY    63  59  87 SW17      29.85F
MONTICELLO *   CLEAR     64  61  88 S8        29.86F
OELWEIN *      CLOUDY    66  64  94 SW6       29.86F
WATERLOO       TSTM      67  65  93 SW10      29.86S
$$

IAZ064-065-067-068-078-200900-
   EAST CENTRAL IOWA

CITY           SKY/WX    TMP DP  RH WIND       PRES   REMARKS
DAVENPORT      CLOUDY    64  56  75 S12       29.90F
IOWA CITY      CLOUDY    63  61  93 S6        29.90S
MT. PLEASANT * MOCLDY    63  61  94 S6        29.91S
MUSCATINE *    CLEAR     64  59  82 S6        29.90F
QUAD CITIES    MOCLDY    64  57  78 VRB5      29.90F
$$

IAZ062-063-075>077-085>089-095>099-200900-
   SOUTHEAST IOWA

CITY           SKY/WX    TMP DP  RH WIND       PRES   REMARKS
BURLINGTON     MOCLDY    63  59  87 S8        29.91F
FAIRFIELD *    CLEAR     64  61  88 S7        29.90R
FORT MADISON * CLEAR     66  61  82 S9        29.92F
KEOKUK *       CLEAR     64  61  88 SW12      29.91F
OSKALOOSA *      N/A     64  63  94 S7        29.88R
CENTERVILLE *  CLEAR     66  66 100 SW9       29.91S
OTTUMWA        CLOUDY    66  62  87 S8        29.88S
WASHINGTON *   CLEAR     64  63  94 SW9       29.90R
$$

ABBREVIATIONS USED IN REMARKS
   TC - TEMPERATURES IN CELSIUS
  WCI - WIND CHILL INDEX
   HX - HEAT INDEX
  VSB - VISIBILITY
$$



USA.gov is the U.S. government's official web portal to all federal, state and local government web resources and services.